Port Aransas, TX

2:02 PM CDT on September 26, 2017 (GMT -0500)
Port Aransas

Weather History for KRAS - September, 2013

Change the Weather History Date:

Monday, September 9, 2013

  Actual Average (KNGP) Record (KNGP)
Temperature  
Mean Temperature 81 °F -  
Max Temperature 87 °F 88 °F 93 °F (1999)
Min Temperature 76 °F 74 °F 70 °F (2011)
Cooling Degree Days 16    
Growing Degree Days 31 (Base 50)    
Moisture  
Dew Point 74 °F    
Average Humidity 77    
Maximum Humidity 90    
Minimum Humidity 63    
Precipitation  
Precipitation 0.14 in - - ()
Sea Level Pressure  
Sea Level Pressure 29.90 in    
Wind  
Wind Speed 12 mph (ESE)    
Max Wind Speed 21 mph    
Max Gust Speed 36 mph    
Visibility 10 miles    
Events Rain , Thunderstorm    
Averages and records for this station are not official NWS values.
T = Trace of Precipitation, MM = Missing Value Source: NWS Daily Summary

Daily Weather History Graph

Daily Weather History Graph

Search for Another Location

Airport or City:

Trip Planner

Search our weather history database for the weather conditions in past years. The results will help you decide how hot, cold, wet, or windy it might be!

Date:

Astronomy

Sep. 09, 2013 Rise Set
Actual Time 7:10 AM CDT 7:39 PM CDT
Civil Twilight 6:47 AM CDT 8:03 PM CDT
Nautical Twilight 6:19 AM CDT 8:30 PM CDT
Astronomical Twilight 5:51 AM CDT 8:58 PM CDT
Moon 11:07 AM CDT (9/9) 10:25 PM CDT (9/9)
Length of Visible Light 13h 15m
Length of Day
12h 28m
Waxing Crescent, 19% of the Moon is Illuminated
Sep 9
Waxing Crescent
Sep 12
First Quarter
Sep 19
Full
Sep 26
Last Quarter
Oct 4
New

Hourly Weather History & Observations

Time (CDT) Temp. Heat Index Dew Point Humidity Pressure Visibility Wind Dir Wind Speed Gust Speed Precip Events Conditions
12:15 AM 81.3 °F 86.1 °F 72.7 °F 75% 29.88 in 10.0 mi ESE 9.2 mph - N/A   Scattered Clouds
12:35 AM 81.5 °F 86.5 °F 72.9 °F 75% 29.88 in 10.0 mi East 10.4 mph - N/A   Scattered Clouds
12:55 AM 81.5 °F 86.3 °F 72.5 °F 74% 29.88 in 10.0 mi East 10.4 mph - N/A   Scattered Clouds
1:15 AM 81.7 °F 86.7 °F 72.5 °F 74% 29.88 in 10.0 mi East 10.4 mph - N/A   Mostly Cloudy
1:35 AM 81.5 °F 86.3 °F 72.7 °F 74% 29.88 in 10.0 mi East 9.2 mph - N/A   Mostly Cloudy
1:55 AM 81.5 °F 86.1 °F 72.1 °F 73% 29.87 in 10.0 mi East 11.5 mph - N/A   Scattered Clouds
2:15 AM 81.7 °F 86.7 °F 72.9 °F 74% 29.88 in 10.0 mi ESE 9.2 mph - N/A   Mostly Cloudy
2:35 AM 81.5 °F 87.4 °F 74.5 °F 79% 29.88 in 10.0 mi SE 12.7 mph 18.4 mph N/A   Overcast
2:55 AM 80.1 °F 84.5 °F 73.9 °F 81% 29.87 in 10.0 mi ESE 8.1 mph - N/A   Mostly Cloudy
3:15 AM 81.7 °F 87.1 °F 73.4 °F 76% 29.87 in 10.0 mi ESE 13.8 mph 18.4 mph N/A   Scattered Clouds
3:35 AM 81.9 °F 87.3 °F 73.2 °F 75% 29.88 in 10.0 mi ESE 12.7 mph 20.7 mph N/A   Mostly Cloudy
3:55 AM 82.0 °F 87.2 °F 72.7 °F 73% 29.87 in 10.0 mi ESE 12.7 mph 20.7 mph N/A   Scattered Clouds
4:15 AM 81.5 °F 86.5 °F 72.9 °F 75% 29.87 in 10.0 mi ESE 17.3 mph 21.9 mph N/A   Scattered Clouds
4:35 AM 81.7 °F 86.7 °F 72.9 °F 74% 29.87 in 10.0 mi ESE 13.8 mph 18.4 mph N/A   Scattered Clouds
4:55 AM 81.7 °F 86.5 °F 72.1 °F 73% 29.87 in 10.0 mi ESE 17.3 mph 21.9 mph N/A   Scattered Clouds
5:15 AM 81.9 °F 86.4 °F 71.8 °F 71% 29.87 in 10.0 mi ESE 16.1 mph 23.0 mph N/A   Scattered Clouds
5:35 AM 81.9 °F 86.4 °F 71.6 °F 71% 29.87 in 10.0 mi ESE 15.0 mph 21.9 mph N/A   Clear
5:55 AM 81.9 °F 86.6 °F 72.0 °F 72% 29.88 in 10.0 mi ESE 17.3 mph 23.0 mph N/A   Scattered Clouds
6:15 AM 81.9 °F 86.4 °F 71.6 °F 71% 29.88 in 10.0 mi ESE 13.8 mph 21.9 mph N/A   Scattered Clouds
6:35 AM 81.9 °F 86.4 °F 71.6 °F 71% 29.88 in 10.0 mi ESE 13.8 mph 20.7 mph N/A   Scattered Clouds
6:55 AM 81.9 °F 86.4 °F 71.6 °F 71% 29.88 in 10.0 mi ESE 13.8 mph 21.9 mph N/A   Scattered Clouds
7:15 AM 81.9 °F 86.6 °F 72.1 °F 72% 29.88 in 10.0 mi ESE 13.8 mph 19.6 mph N/A   Scattered Clouds
7:35 AM 81.9 °F 86.6 °F 72.1 °F 72% 29.89 in 10.0 mi ESE 12.7 mph 20.7 mph N/A   Mostly Cloudy
7:55 AM 76.8 °F - 71.1 °F 82% 29.90 in 2.0 mi ESE 15.0 mph 35.7 mph 0.08 in Rain Rain
8:15 AM 78.8 °F - 72.5 °F 81% 29.91 in 10.0 mi ESE 13.8 mph 21.9 mph N/A   Scattered Clouds
8:35 AM 78.6 °F - 72.9 °F 82% 29.92 in 5.0 mi SE 15.0 mph 23.0 mph 0.02 in Rain Rain
8:55 AM 77.9 °F - 73.9 °F 88% 29.92 in 10.0 mi East 10.4 mph - 0.02 in   Overcast
9:15 AM 78.8 °F - 74.3 °F 86% 29.92 in 10.0 mi ESE 8.1 mph - N/A   Mostly Cloudy
9:35 AM 80.1 °F 84.5 °F 73.8 °F 81% 29.93 in 10.0 mi SE 12.7 mph 23.0 mph N/A Thunderstorm Thunderstorm
9:55 AM 80.1 °F 84.1 °F 72.5 °F 78% 29.93 in 10.0 mi SE 10.4 mph 17.3 mph N/A   Mostly Cloudy
10:15 AM 82.6 °F 88.8 °F 73.8 °F 75% 29.94 in 10.0 mi SE 11.5 mph - N/A   Overcast
10:35 AM 84.2 °F 91.9 °F 74.7 °F 73% 29.94 in 10.0 mi SE 10.4 mph - N/A Thunderstorm Thunderstorm
10:55 AM 79.9 °F - 74.7 °F 84% 29.95 in 10.0 mi East 13.8 mph 19.6 mph N/A Thunderstorm Thunderstorm
11:15 AM 82.2 °F 87.8 °F 73.0 °F 74% 29.95 in 10.0 mi East 11.5 mph 16.1 mph N/A   Scattered Clouds
11:35 AM 84.0 °F 91.2 °F 74.3 °F 72% 29.94 in 10.0 mi ESE 11.5 mph 17.3 mph N/A   Scattered Clouds
11:55 AM 85.1 °F 92.2 °F 73.4 °F 68% 29.93 in 10.0 mi ESE 12.7 mph - N/A   Scattered Clouds
12:15 PM 86.0 °F 92.6 °F 72.3 °F 64% 29.93 in 10.0 mi ESE 13.8 mph - N/A Thunderstorm Scattered Clouds
12:35 PM 86.9 °F 94.1 °F 73.0 °F 63% 29.93 in 10.0 mi SE 11.5 mph - N/A   Clear
12:55 PM 86.0 °F 93.4 °F 73.6 °F 66% 29.94 in 10.0 mi ESE 15.0 mph 20.7 mph N/A   Scattered Clouds
1:15 PM 86.2 °F 94.6 °F 74.7 °F 68% 29.93 in 10.0 mi East 15.0 mph 21.9 mph N/A   Scattered Clouds
1:35 PM 80.1 °F 84.6 °F 74.3 °F 82% 29.92 in 5.0 mi East 9.2 mph 25.3 mph 0.01 in Rain Rain
1:55 PM 83.3 °F 92.1 °F 76.5 °F 80% 29.92 in 10.0 mi East 13.8 mph - 0.01 in   Mostly Cloudy
2:15 PM 84.7 °F 92.8 °F 74.7 °F 72% 29.92 in 10.0 mi ESE 16.1 mph - N/A   Mostly Cloudy
2:35 PM 85.8 °F 94.6 °F 74.8 °F 70% 29.91 in 10.0 mi ESE 15.0 mph 20.7 mph N/A   Scattered Clouds
2:55 PM 85.8 °F 93.4 °F 73.6 °F 67% 29.90 in 10.0 mi ESE 16.1 mph 20.7 mph N/A   Scattered Clouds
3:15 PM 85.5 °F 93.8 °F 74.5 °F 70% 29.90 in 10.0 mi ESE 17.3 mph 23.0 mph N/A Thunderstorm Scattered Clouds
3:35 PM 80.8 °F 85.9 °F 74.1 °F 80% 29.90 in 10.0 mi SE 15.0 mph 21.9 mph N/A Thunderstorm Overcast
3:55 PM 82.4 °F 89.0 °F 74.5 °F 77% 29.90 in 10.0 mi SE 11.5 mph 16.1 mph N/A   Overcast
4:15 PM 83.8 °F 91.4 °F 74.8 °F 74% 29.91 in 10.0 mi ESE 16.1 mph 27.6 mph N/A   Overcast
4:35 PM 78.3 °F - 74.3 °F 88% 29.89 in 5.0 mi ESE 12.7 mph 20.7 mph 0.01 in Rain Light Rain
4:55 PM 79.2 °F - 75.6 °F 89% 29.90 in 10.0 mi ESE 12.7 mph 20.7 mph 0.01 in   Overcast
5:15 PM 80.6 °F 86.0 °F 74.8 °F 83% 29.90 in 10.0 mi ESE 15.0 mph 20.7 mph N/A   Mostly Cloudy
5:35 PM 80.6 °F 85.7 °F 74.3 °F 81% 29.91 in 10.0 mi ESE 15.0 mph 19.6 mph N/A   Scattered Clouds
5:55 PM 80.6 °F 85.2 °F 73.2 °F 78% 29.91 in 10.0 mi ESE 12.7 mph 21.9 mph N/A   Clear
6:15 PM 80.6 °F 85.7 °F 74.3 °F 81% 29.90 in 10.0 mi ESE 16.1 mph 21.9 mph N/A   Mostly Cloudy
6:35 PM 81.0 °F 85.8 °F 73.2 °F 77% 29.90 in 10.0 mi SE 11.5 mph 18.4 mph N/A   Mostly Cloudy
6:55 PM 80.6 °F 85.7 °F 74.3 °F 81% 29.90 in 10.0 mi East 12.7 mph 19.6 mph N/A   Scattered Clouds
7:15 PM 80.6 °F 85.2 °F 73.0 °F 78% 29.90 in 10.0 mi ESE 12.7 mph 19.6 mph N/A   Scattered Clouds
7:35 PM 80.6 °F 85.0 °F 72.9 °F 77% 29.90 in 10.0 mi ESE 15.0 mph 19.6 mph N/A   Clear
7:55 PM 80.8 °F 85.9 °F 73.9 °F 80% 29.90 in 10.0 mi East 13.8 mph 19.6 mph N/A   Scattered Clouds
8:15 PM 80.6 °F 85.7 °F 74.3 °F 81% 29.91 in 10.0 mi East 20.7 mph 27.6 mph N/A   Mostly Cloudy
8:35 PM 78.1 °F - 73.4 °F 85% 29.92 in 10.0 mi East 19.6 mph 27.6 mph N/A   Overcast
8:55 PM 78.3 °F - 75.2 °F 90% 29.92 in 5.0 mi ESE 12.7 mph 19.6 mph 0.02 in Rain Light Rain
9:15 PM 79.3 °F - 75.2 °F 87% 29.92 in 10.0 mi SSE 12.7 mph 16.1 mph N/A   Overcast
9:35 PM 79.2 °F - 75.2 °F 88% 29.92 in 10.0 mi SSE 10.4 mph - N/A   Overcast
9:55 PM 79.5 °F - 75.6 °F 88% 29.92 in 10.0 mi SSE 11.5 mph - N/A   Overcast
10:15 PM 80.4 °F 85.3 °F 74.1 °F 81% 29.93 in 10.0 mi SE 11.5 mph 17.3 mph N/A   Overcast
10:35 PM 79.5 °F - 74.3 °F 84% 29.93 in 10.0 mi ESE 9.2 mph 20.7 mph N/A   Overcast
10:55 PM 81.3 °F 86.8 °F 73.8 °F 78% 29.93 in 10.0 mi SE 13.8 mph 19.6 mph N/A   Overcast
11:15 PM 81.0 °F 86.2 °F 73.9 °F 79% 29.93 in 10.0 mi SE 11.5 mph - N/A   Overcast
11:35 PM 81.0 °F 86.0 °F 73.4 °F 78% 29.93 in 10.0 mi SE 10.4 mph 16.1 mph N/A   Mostly Cloudy
11:55 PM 81.1 °F 86.2 °F 73.4 °F 77% 29.93 in 10.0 mi SE 10.4 mph 18.4 mph N/A   Scattered Clouds